Regional Weather Roundup
Issued by NWS

Home | Current Version | Previous Version | Text Only | Print | Product List | Glossary On
Versions: 1 2 3 4 5 6 7 8 9 10 11 12 13 14 15 16 17 18 19 20 21 22 23 24 25 26 27 28 29 30 31 32 33 34 35 36 37 38 39 40 41 42 43 44 45 46 47 48 49 50
000
ASUS45 KREV 202210
RWRNV
NEVADA REGIONAL WEATHER ROUNDUP
NATIONAL WEATHER SERVICE RENO NV
200 PM PST TUE FEB 20 2018

NOTE: "FAIR" INDICATES FEW OR NO CLOUDS BELOW 12,000 FEET WITH NO
SIGNIFICANT WEATHER AND/OR OBSTRUCTIONS TO VISIBILITY.

NVZ001-003-004-202300-
WESTERN NEVADA

CITY           SKY/WX    TMP DP  RH WIND       PRES   REMARKS
RENO           CLOUDY    34   6  31 CALM      30.01F
CARSON CITY    FAIR      36   3  25 E12       30.01F
MINDEN         FAIR      32   0  25 CALM      30.01S
PYRAMID LAKE     N/A     30 N/A N/A E3          N/A
FALLON         PTSUNNY   34   7  32 CALM      30.06F
LOVELOCK       FAIR      30   6  36 S7        30.07F
HAWTHORNE      SUNNY     34   0  23 N6        30.02F
$$

NVZ002-CAZ072-073-202300-
NORTHERN AND CENTRAL SIERRA

CITY           SKY/WX    TMP DP  RH WIND       PRES   REMARKS
S. LAKE TAHOE  CLOUDY    27  -4  26 S12       29.94F
TRUCKEE        PTSUNNY   28  -2  26 W10       29.97F
SQUAW VLY 8000   N/A     19  -2  38 SW10        N/A
SUSANVILLE     SUNNY     32   9  37 NE5       30.03F
BLUE CANYON    FAIR      28  -1  28 VRB5      30.02F
MAMMOTH LAKES  FAIR      32  -8  17 E10       29.91S
BRIDGEPORT     CLOUDY    29   0  28 SW13G22   29.88F
$$

NVZ030-031-036-202300-
NORTHERN NEVADA

CITY           SKY/WX    TMP DP  RH WIND       PRES   REMARKS
ELKO           FAIR      23   5  46 SW13      30.03F
WINNEMUCCA     FAIR      30   0  27 SE6       30.05F
WENDOVER       FAIR      27   8  44 E9        30.08S
$$

NVZ035-037-202300-
CENTRAL NEVADA

CITY           SKY/WX    TMP DP  RH WIND       PRES   REMARKS
ELY            PTSUNNY   22   1  40 VRB3      29.96F
EUREKA           N/A     23   0  36 SW6       29.98F
$$

NVZ013-014-202300-
SOUTH CENTRAL NEVADA

CITY           SKY/WX    TMP DP  RH WIND       PRES   REMARKS
TONOPAH        FAIR      32  -9  16 N7        29.99F
$$

NVZ017-020-022-202300-
SOUTHERN NEVADA

CITY           SKY/WX    TMP DP  RH WIND       PRES   REMARKS
LAS VEGAS      FAIR      47  -1  13 SW3       30.10F
N. LAS VEGAS   FAIR      46  -3  13 MISG      30.09F
NELLIS AFB     FAIR      48  -1  13 S10       30.09F
HENDERSON      FAIR      48  -2  12 W10       30.10F
MERCURY        FAIR      42  -2  15 MISG      30.07F
$$



USA.gov is the U.S. government's official web portal to all federal, state and local government web resources and services.